Weather History for KEST - September, 2014

Change the Weather History Date:

Wednesday, September 10, 2014

  Actual Average Record
Temperature  
Mean Temperature 56 °F 63 °F  
Max Temperature 64 °F 75 °F 90 °F (1978)
Min Temperature 48 °F 51 °F 39 °F (1948)
Degree Days  
Heating Degree Days 9 4  
Month to date heating degree days 31 29  
Since 1 July heating degree days 63 61  
Cooling Degree Days 0 2  
Month to date cooling degree days 13 26  
Year to date cooling degree days 422 566  
Growing Degree Days 6 (Base 50)    
Moisture  
Dew Point 52 °F    
Average Humidity 90    
Maximum Humidity 100    
Minimum Humidity 80    
Precipitation  
Precipitation 0.03 in 0.10 in 1.21 in (2010)
Month to date precipitation 0.17 1.00  
Sea Level Pressure  
Sea Level Pressure 29.85 in    
Wind  
Wind Speed 16 mph (North)    
Max Wind Speed 29 mph    
Max Gust Speed 38 mph    
Visibility 8 miles    
Events Rain    
T = Trace of Precipitation, MM = Missing Value Source: NWS Daily Summary

Daily Weather History Graph

Daily Weather History Graph

Search for Another Location

Airport or City:

Trip Planner

Search our weather history database for the weather conditions in past years. The results will help you decide how hot, cold, wet, or windy it might be!

Date:

Astronomy

Sep. 10, 2014 Rise Set
Actual Time 6:52 AM CDT 7:38 PM CDT
Civil Twilight 6:24 AM CDT 8:06 PM CDT
Nautical Twilight 5:49 AM CDT 8:41 PM CDT
Astronomical Twilight 5:13 AM CDT 9:16 PM CDT
Moon 8:32 PM CDT (9/10) 8:45 AM CDT (9/10)
Length of Visible Light 13h 42m
Length of Day
12h 45m
Waning Gibbous, 96% of the Moon is Illuminated
Sep 10
Waning Gibbous
Sep 15
Last Quarter
Sep 24
New
Oct 1
First Quarter
Oct 8
Full

Hourly Weather History & Observations

Time (CDT) Temp. Dew Point Humidity Pressure Visibility Wind Dir Wind Speed Gust Speed Precip Events Conditions
12:35 AM 64.0 °F 63.0 °F 96% 29.68 in 9.0 mi ENE 3.5 mph - N/A   Overcast
12:52 AM 64.0 °F 63.0 °F 96% 29.66 in 8.0 mi Calm Calm - N/A   Overcast
1:52 AM 63.0 °F 63.0 °F 100% 29.65 in 4.0 mi NNE 6.9 mph - 0.00 in Rain Light Rain
2:52 AM 63.0 °F 63.0 °F 100% 29.64 in 6.0 mi NNW 4.6 mph - 0.00 in   Overcast
3:00 AM 63.0 °F 63.0 °F 100% 29.66 in 5.0 mi NNW 4.6 mph - N/A   Overcast
3:05 AM 63.0 °F 63.0 °F 100% 29.65 in 4.0 mi North 3.5 mph - N/A   Overcast
3:43 AM 63.0 °F 63.0 °F 100% 29.64 in 4.0 mi NNW 5.8 mph - 0.01 in Rain Light Rain
3:52 AM 63.0 °F 63.0 °F 100% 29.62 in 5.0 mi NNW 3.5 mph - 0.01 in   Overcast
4:25 AM 63.0 °F 62.1 °F 97% 29.65 in 5.0 mi NNW 16.1 mph 25.3 mph 0.00 in Rain Light Rain
4:39 AM 60.1 °F 59.0 °F 96% 29.65 in 5.0 mi NNW 16.1 mph 26.5 mph 0.01 in Rain Light Rain
5:04 AM 59.0 °F 57.9 °F 96% 29.66 in 6.0 mi North 18.4 mph 24.2 mph N/A   Overcast
5:43 AM 57.0 °F 57.0 °F 100% 29.67 in 1.8 mi North 18.4 mph - 0.01 in   Overcast
5:52 AM 57.0 °F 57.0 °F 100% 29.67 in 2.0 mi North 13.8 mph 24.2 mph 0.01 in   Overcast
6:07 AM 57.0 °F 57.0 °F 100% 29.68 in 3.0 mi NNW 17.3 mph 23.0 mph N/A   Overcast
6:52 AM 55.0 °F 55.0 °F 100% 29.69 in 4.0 mi NNW 17.3 mph 24.2 mph N/A   Overcast
7:21 AM 55.0 °F 54.0 °F 96% 29.69 in 4.0 mi NNW 18.4 mph 25.3 mph N/A   Overcast
7:38 AM 54.0 °F 54.0 °F 100% 29.70 in 4.0 mi North 20.7 mph 29.9 mph N/A   Overcast
7:52 AM 54.0 °F 53.1 °F 97% 29.70 in 9.0 mi NNW 19.6 mph - N/A   Overcast
8:10 AM 54.0 °F 53.1 °F 97% 29.72 in 10.0 mi NNW 17.3 mph 31.1 mph N/A   Overcast
8:27 AM 54.0 °F 53.1 °F 97% 29.73 in 10.0 mi NNW 20.7 mph 27.6 mph N/A   Overcast
8:52 AM 54.0 °F 53.1 °F 97% 29.75 in 6.0 mi NNW 17.3 mph 28.8 mph N/A   Overcast
9:52 AM 54.0 °F 52.0 °F 93% 29.78 in 10.0 mi North 24.2 mph 29.9 mph N/A   Overcast
10:25 AM 54.0 °F 53.1 °F 97% 29.81 in 1.8 mi North 17.3 mph 27.6 mph 0.00 in Rain Light Rain
10:33 AM 54.0 °F 53.1 °F 97% 29.80 in 3.0 mi NNW 20.7 mph 31.1 mph 0.00 in Rain Light Rain
10:52 AM 55.0 °F 53.1 °F 93% 29.81 in 6.0 mi NNW 17.3 mph 28.8 mph 0.00 in   Overcast
11:23 AM 55.0 °F 52.0 °F 89% 29.83 in 9.0 mi North 19.6 mph 31.1 mph 0.00 in   Overcast
11:52 AM 54.0 °F 51.1 °F 90% 29.84 in 10.0 mi North 26.5 mph 33.4 mph 0.00 in   Overcast
12:37 PM 55.9 °F 50.0 °F 80% 29.86 in 10.0 mi North 24.2 mph 35.7 mph N/A   Overcast
12:47 PM 53.6 °F 50.0 °F 88% 29.87 in 10.0 mi NNW 23.0 mph 29.9 mph N/A   Overcast
12:52 PM 54.0 °F 50.0 °F 86% 29.87 in 10.0 mi North 23.0 mph 29.9 mph N/A   Overcast
1:33 PM 53.1 °F 51.1 °F 93% 29.89 in 7.0 mi North 18.4 mph 27.6 mph 0.00 in Rain Light Rain
1:52 PM 52.0 °F 48.9 °F 89% 29.90 in 10.0 mi North 20.7 mph 28.8 mph 0.00 in   Overcast
2:28 PM 51.1 °F 48.0 °F 89% 29.91 in 10.0 mi NNW 20.7 mph - N/A   Overcast
2:52 PM 52.0 °F 48.0 °F 86% 29.92 in 10.0 mi North 19.6 mph 26.5 mph N/A   Overcast
3:06 PM 54.0 °F 48.0 °F 80% 29.92 in 10.0 mi North 23.0 mph 27.6 mph N/A   Overcast
3:23 PM 54.0 °F 48.0 °F 80% 29.92 in 10.0 mi North 19.6 mph 28.8 mph N/A   Overcast
3:52 PM 52.0 °F 46.9 °F 83% 29.93 in 10.0 mi North 16.1 mph 29.9 mph N/A   Overcast
4:29 PM 52.0 °F 46.9 °F 83% 29.94 in 10.0 mi North 19.6 mph 26.5 mph N/A   Overcast
4:52 PM 52.0 °F 46.9 °F 83% 29.96 in 10.0 mi North 17.3 mph 25.3 mph N/A   Overcast
5:03 PM 52.0 °F 46.0 °F 80% 29.95 in 10.0 mi North 19.6 mph 27.6 mph N/A   Overcast
5:52 PM 52.0 °F 46.0 °F 80% 29.99 in 10.0 mi North 15.0 mph 25.3 mph N/A   Overcast
6:47 PM 51.8 °F 46.4 °F 82% 30.00 in 10.0 mi North 16.1 mph - N/A   Overcast
6:52 PM 51.1 °F 46.9 °F 86% 30.01 in 10.0 mi North 16.1 mph - N/A   Overcast
7:21 PM 50.0 °F 45.0 °F 83% 30.01 in 10.0 mi North 19.6 mph 24.2 mph N/A   Overcast
7:52 PM 50.0 °F 45.0 °F 83% 30.04 in 10.0 mi North 12.7 mph - N/A   Overcast
8:14 PM 50.0 °F 45.0 °F 83% 30.04 in 10.0 mi North 13.8 mph - N/A   Overcast
8:52 PM 48.9 °F 45.0 °F 86% 30.08 in 10.0 mi North 16.1 mph - N/A   Overcast
9:29 PM 48.9 °F 45.0 °F 86% 30.08 in 10.0 mi NNE 13.8 mph - N/A   Overcast
9:44 PM 48.9 °F 45.0 °F 86% 30.08 in 10.0 mi North 12.7 mph - N/A   Overcast
10:33 PM 48.0 °F 45.0 °F 89% 30.09 in 10.0 mi North 11.5 mph - N/A   Overcast
10:52 PM 48.0 °F 45.0 °F 89% 30.11 in 10.0 mi North 11.5 mph - N/A   Overcast
11:06 PM 48.0 °F 45.0 °F 89% 30.10 in 10.0 mi North 11.5 mph - N/A   Overcast
11:39 PM 48.0 °F 45.0 °F 89% 30.11 in 10.0 mi North 11.5 mph - N/A   Overcast
11:52 PM 48.0 °F 45.0 °F 89% 30.13 in 10.0 mi North 15.0 mph - N/A   Overcast